Hourly Weather Roundup
Issued by NWS Central Illinois

Home | Current Version | Previous Version | Text Only | Print | Product List | Glossary On
Versions: 1 2 3 4 5 6 7 8 9 10 11 12 13 14 15 16 17 18 19 20 21 22 23 24 25 26 27 28 29 30 31 32 33 34 35 36 37 38 39 40 41 42 43 44 45 46 47 48 49 50
000
NZUS43 KILX 221610
HWRILX

AREA WEATHER ROUNDUP
NATIONAL WEATHER SERVICE, LINCOLN IL
1100 AM CDT FRI JUL 22 2016


CITY           SKY/WX    TMP DP  RH WIND       PRES   REMARKS
BLOOMINGTON    CLOUDY    78  69  73 VRB6      30.09S HX  80
CHAMPAIGN      CLOUDY    81  71  71 NE6       30.07S HX  85
DANVILLE       MOSUNNY   82  71  67 CALM      30.04R HX  86
DECATUR        CLOUDY    82  71  69 CALM      30.08R HX  86
EFFINGHAM      CLOUDY    76  74  93 CALM      30.10R
FLORA          CLOUDY    80  75  84 SW9       30.05R HX  84
GALESBURG      CLOUDY    76  69  77 SW6       30.05S
JACKSONVILLE   PTSUNNY   76  71  84 SW7       30.06R
LACON          CLOUDY    76  70  80 S6        30.06R
LAWRENCEVILLE  LGT RAIN  78  75  90 N9        30.07R HX  81
LITCHFIELD     CLOUDY    75  69  79 N7        30.09R
$$


CITY           SKY/WX    TMP DP  RH WIND       PRES   REMARKS
LINCOLN        CLOUDY    79  71  77 CALM      30.07F HX  82
MACOMB         CLOUDY    74  70  86 SW8       30.07S
MATTOON        CLOUDY    79  69  71 VRB3      30.06R HX  81
MT CARMEL AP   LGT RAIN  77  73  86 SW3       30.04R
OLNEY-NOBLE AP CLOUDY    79  77  94 CALM      30.06R HX  83
PARIS          CLOUDY    82  74  76 CALM      30.07R HX  88
PEORIA         CLOUDY    77  72  84 S6        30.06S
PONTIAC        CLOUDY    79  73  83 SW3       30.08S HX  82
RANTOUL        NOT AVBL
ROBINSON       LGT RAIN  76  73  90 CALM      30.08R
SPRINGFIELD    PTSUNNY   80  71  74 CALM      30.08R HX  84
TAYLORVILLE    CLOUDY    76  71  83 N8        30.08R
$$

...REGIONAL REPORTS...


CITY           SKY/WX    TMP DP  RH WIND       PRES   REMARKS
CHICAGO O`HARE PTSUNNY   80  68  66 W14       30.04R HX  83
KANKAKEE       NOT AVBL
MOLINE         PTSUNNY   80  69  69 SW10      30.04S HX  83
MOUNT STERLING CLOUDY    73  69  88 W6        30.05R
MOUNT VERNON   CLOUDY    77  70  78 SW13      30.05S
PITTSFIELD     CLOUDY    73  71  95 SW8       30.07S
QUINCY         CLOUDY    72  69  90 SW14      30.04F
ROCKFORD       CLOUDY    80  70  71 W6        30.06R HX  83
$$


CITY           SKY/WX    TMP DP  RH WIND       PRES   REMARKS
BURLINGTON     CLOUDY    73  71  93 S7        30.04R
CEDAR RAPIDS   CLOUDY    77  74  90 SW7       30.02F
DES MOINES     CLOUDY    81  73  76 S15       30.01R HX  86
KIRKSVILLE     CLOUDY    75  70  84 SW13G18   30.07F
OTTUMWA        CLOUDY    80  71  74 S8        30.00S HX  84
ST LOUIS       CLOUDY    76  70  82 W10       30.04F
$$


CITY           SKY/WX    TMP DP  RH WIND       PRES   REMARKS
TERRE HAUTE    CLOUDY    79  72  79 S7        30.06R HX  82
EVANSVILLE     CLOUDY    76  73  91 SW9       30.05F
INDIANAPOLIS   PTSUNNY   83  73  72 W12       30.04S HX  89
LAFAYETTE      CLOUDY    81  73  76 W5        30.04S HX  86
MADISON        PTSUNNY   82  73  74 VRB3      30.02S HX  87
MILWAUKEE      CLOUDY    85  69  58 W8        30.01R HX  89
$$






USA.gov is the U.S. government's official web portal to all federal, state and local government web resources and services.